Starlink 31428

operational
NORAD ID: 59367 Int'l Des: 2024-060 Owner: SPXS Country: US Constellation: starlink
LEOCIRCULAR

About Starlink 31428

Description loading...

Live Position

Loading 3D Globe...

Upcoming Passes

Altitude History

Altitude vs Time

uPlot chart will show altitude changes over time

Two-Line Element Set

1 59367U 24060V 25259.16459404 .00006134 00000-0 23200-3 0 9992
2 59367 42.9984 165.2919 0001264 265.5366 94.5341 15.27614457 83376
Epoch: Sep 16, 2025 • Age: 16 hours

Current Status

Altitude 489.7 km
Velocity 7.62 km/s
Sub-Earth Point -28.20°S, 161.02°W
Launch Date Mar 31, 2024
Age 1.4 years
Type internet

Technical Details

Classification Payload
Mass 730.00 kg
Dry Mass 700.00 kg
Total Mass 730.00 kg
Length 0.30 m
Diameter 4.10 m
Span 29.00 m
Shape Box + pan
Manufacturer SPXS
Bus Type Starlink V2M
Phase Status In Orbit
Owner/State SPXS/US

Large Constellations

Loading constellations...